Terug naar catalogus

STARLINK-5939

ActiefCommunicatieVLEO
NORAD 56015·PAYLOAD·🇺🇸 United States

Gelanceerd Mar 24, 2023 vanaf Cape Canaveral Space Force Station

Loading…

Volgende Passages (komende 24 uur)

TLE

VersSource: CelesTrak SupGP

Epoch: Sep 14, 2026, 20:35 UTC

1 56015C 23042AF  26257.85812500  .00053500  00000+0  19377-2 0  2577
2 56015  43.0030  56.6560 0001444 271.4157 294.5748 15.27552431    12

Volg STARLINK-5939 in realtime met AllMySat

Download on the App Store